Location: Cabeza Gorda
(40.0667°N, 4.9667°W)
Time: 19:59:35
(UTC+00:00)

Cosmos 1943 Rocket - Pass Details

Date: 15 January 2026
Orbit: 811 x 842 km, 71.0° (Epoch: 11 February)

Event Time Altitude Azimuth Distance (km) Brightness Sun altitude
Rises 07:00:52 0° 239° (WSW) 3,327 4.9 -7.7°
Reaches altitude 10° 07:03:46 10° 253° (WSW) 2,397 4.1 -7.2°
Maximum altitude 07:08:05 23° 305° (NW) 1,655 3.2 -6.4°
Drops below altitude 10° 07:12:26 10° 358° (N) 2,405 4.3 -5.6°
Sets 07:15:22 0° 13° (NNE) 3,342 5.2 -5.1°
